This is the latest recevied weather packets stored in our database for station/object IU1DOF-3. If no packets are shown the sender has not sent any weather packets the latest 10 day(s).
| Time | Temp. | Humidity | Pressure | Rain* | Wind** | Luminosity | Snow |
|---|---|---|---|---|---|---|---|
| 1777875117 | 10.56° C | 91% | 1015.3 hPa | 0 mm | - | - | - |
| 1777874493 | 10.56° C | 89% | 1015.6 hPa | 0 mm | - | - | - |
| 1777873885 | 10.56° C | 89% | 1015.4 hPa | 0 mm | - | - | - |
| 1777873277 | 10° C | 89% | 1015.3 hPa | 0 mm | - | - | - |
| 1777872669 | 10.56° C | 90% | 1015.4 hPa | 0 mm | - | - | - |
| 1777872061 | 10° C | 89% | 1015.5 hPa | 0 mm | - | - | - |
| 1777871441 | 10.56° C | 87% | 1015.3 hPa | 0 mm | - | - | - |
| 1777870830 | 10° C | 89% | 1015.4 hPa | 0 mm | - | - | - |
| 1777870221 | 10° C | 89% | 1015.2 hPa | 0 mm | - | - | - |
| 1777869598 | 10° C | 89% | 1015 hPa | 0 mm | - | - | - |
| 1777868989 | 10° C | 89% | 1015.3 hPa | 0 mm | - | - | - |
| 1777868381 | 10.56° C | 86% | 1015.1 hPa | 0 mm | - | - | - |
| 1777867773 | 10° C | 87% | 1015.1 hPa | 0 mm | - | - | - |
| 1777867165 | 10° C | 88% | 1015.3 hPa | 0 mm | - | - | - |
| 1777866557 | 10° C | 88% | 1015.1 hPa | 0 mm | - | - | - |
| 1777865949 | 10° C | 89% | 1015.2 hPa | 0 mm | - | - | - |
| 1777865342 | 10° C | 88% | 1015.1 hPa | 0 mm | - | - | - |
| 1777864723 | 10.56° C | 86% | 1015.2 hPa | 0 mm | - | - | - |
| 1777864110 | 10° C | 86% | 1015 hPa | 0 mm | - | - | - |
| 1777863486 | 10° C | 88% | 1015.3 hPa | 0 mm | - | - | - |
| 1777862877 | 10° C | 88% | 1015.6 hPa | 0 mm | - | - | - |
| 1777862269 | 10° C | 89% | 1015.4 hPa | 0 mm | - | - | - |
| 1777861661 | 10.56° C | 86% | 1015.8 hPa | 0 mm | - | - | - |
| 1777861038 | 10.56° C | 86% | 1015.7 hPa | 0 mm | - | - | - |
| 1777860429 | 10° C | 86% | 1015.5 hPa | 0 mm | - | - | - |
* Rain latest hour (hover to see other rain measurements)
** Current wind speed in m/s (hover to see current wind gust speed)